Tracking 31027 objects as of 19-Jul-2025
HD Live streaming from Space Station
objects crossing your sky now

STARLINK-32431

Track STARLINK-32431 now!
10-day predictions
STARLINK-32431 is classified as:


NORAD ID: 61256
Int'l Code: 2024-175P
Perigee: 481.5 km
Apogee: 483.3 km
Inclination: 53.2 °
Period: 94.1 minutes
Semi major axis: 6853 km
RCS: Unknown
Launch date: September 25, 2024
Source: United States (US)
Launch site: AIR FORCE WESTERN TEST RANGE (AFWTR)
Your satellite tracking list
STARLINK-1578
Track 1 satellite(s)




NASA's NSSDC Master Catalog

Two Line Element Set (TLE):
1 61256U 24175P   25199.73256719 -.00000366  00000-0 -24566-6 0  9991
2 61256  53.1597 200.7534 0001357  82.6318 277.4837 15.30190936 45630
Source of the keplerian elements: AFSPC